This demonstration page uses our WeatherBlox Daily Observations layout. Learn more.

Left ArrowRight Arrow

Hourly Observations for June 10, 2019

Temp ( °F °C ) Dew Point ( °F °C ) Humidity (%) Winds ( mph kmh ) Pressure ( in mb ) Visibility ( mi km ) Precip ( " mm )
12:32 am 00:32 Mostly Cloudy with Heavy Rain 72 22.2 70 21.1 94 94 VRB 3 6 29.90 1013 2 3 0.12 3.05
12:39 am 00:39 Cloudy with Heavy Rain 72 22.2 71 21.7 97 97 E 8 13 29.90 1013 1 2 0.28 7.11
12:46 am 00:46 Cloudy with Heavy Rain 72 22.2 71 21.7 97 97 E 8 13 29.89 1012 2 3 0.35 8.89
12:53 am 00:53 Cloudy with Rain 72 22.2 71 21.7 97 97 E 5 7 29.90 1012 3 5 0.37 9.40
1:26 am 01:26 Cloudy with Light Rain 72 22.2 71 21.7 97 97 N N/A 29.89 1012 8 13 0.03 0.76
1:48 am 01:48 Cloudy with Light Rain 72 22 72 22 100 100 SSE 5 7 29.88 1012 10 16 0.04 1.02
1:53 am 01:53 Mostly Cloudy with Rain 72 22.2 70 21.1 94 94 VRB 6 9 29.88 1012 9 14 0.04 1.02
2:04 am 02:04 Cloudy with Light Rain 72 22.2 70 21.1 94 94 VRB 3 6 29.88 1012 10 16 0.01 0.25
2:17 am 02:17 Cloudy with Light Rain 71 21.7 70 21.1 96 96 N N/A 29.87 1012 9 14 0.02 0.51
2:35 am 02:35 Cloudy with Light Rain 71 21.7 70 21.1 96 96 N N/A 29.87 1012 10 16 0.04 1.02
2:53 am 02:53 Cloudy with Light Rain 71 21.7 69 20.6 94 94 VRB 3 6 29.87 1012 10 16 0.05 1.27
3:16 am 03:16 Cloudy 71 21.7 69 20.6 94 94 VRB 3 6 29.87 1012 10 16 N/A
3:25 am 03:25 Cloudy 71 21.7 69 20.6 94 94 N N/A 29.87 1012 10 16 N/A
3:53 am 03:53 Cloudy 71 21.7 69 20.6 94 94 N N/A 29.87 1011 10 16 N/A
4:06 am 04:06 Cloudy with Light Rain 70 21.1 69 20.6 97 97 N N/A 29.86 1011 10 16 N/A
4:16 am 04:16 Cloudy with Light Rain 71 21.7 69 20.6 94 94 N N/A 29.86 1011 10 16 N/A
4:53 am 04:53 Cloudy 71 21.7 69 20.6 94 94 N N/A 29.86 1011 10 16 N/A
5:06 am 05:06 Cloudy with Light Rain 70 21.1 70 21.1 100 100 N N/A 29.86 1011 10 16 N/A
5:53 am 05:53 Cloudy with Light Rain 70 21.1 70 21.1 100 100 N N/A 29.87 1011 6 10 0.02 0.51
6:53 am 06:53 Cloudy with Light Rain 71 21.7 70 21.1 96 96 N N/A 29.88 1012 9 14 0.05 1.27
7:08 am 07:08 Cloudy with Light Rain 71 21.7 70 21.1 96 96 WNW 3 6 29.88 1012 3 5 N/A
7:27 am 07:27 Cloudy with Light Rain 71 21.7 70 21.1 96 96 N N/A 29.88 1012 10 16 0.01 0.25
7:53 am 07:53 Cloudy with Light Rain 71 21.7 70 21.1 96 96 W 5 7 29.89 1012 9 14 0.01 0.25
8:02 am 08:02 Cloudy 71 21.7 70 21.1 96 96 W 7 11 29.89 1012 10 16 N/A
8:53 am 08:53 Cloudy 72 22.2 70 21.1 94 94 WNW 12 19 29.90 1013 10 16 N/A
9:53 am 09:53 Cloudy 72 22.2 68 20 87 87 WNW 10 17 29.92 1013 10 16 N/A
10:53 am 10:53 Cloudy 71 21.7 66 18.9 84 84 NW 16 26 29.94 1014 10 16 N/A
11:04 am 11:04 Cloudy 72 22.2 66 18.9 82 82 NW 14 22 29.94 1014 10 16 N/A
11:53 am 11:53 Partly Cloudy 76 24.4 66 18.9 72 72 NW 13 20 29.96 1014 10 16 N/A
12:53 pm 12:53 Mostly Cloudy 77 25 66 18.9 69 69 WNW 15 24 29.96 1015 10 16 N/A
1:53 pm 13:53 Mostly Cloudy with Light Rain 76 24.4 66 18.9 72 72 NW 15 24 29.98 1015 10 16 N/A
2:04 pm 14:04 Mostly Cloudy with Light Rain 74 23.3 65 18.3 74 74 NW 20 31 29.98 1015 10 16 N/A
2:19 pm 14:19 Cloudy with Light Rain 72 22.2 64 17.8 76 76 WNW 21 33 29.99 1016 10 16 N/A
2:26 pm 14:26 Cloudy with Light Rain 72 22.2 64 17.8 76 76 NW 16 26 29.99 1016 10 16 N/A
2:53 pm 14:53 Cloudy with Light Rain 70 21.1 62 16.7 76 76 WNW 22 35 30.01 1016 10 16 N/A
3:53 pm 15:53 Cloudy with Light Rain 68 20 59 15 73 73 WNW 20 31 30.04 1017 10 16 N/A
4:40 pm 16:40 Cloudy with Light Rain 71 21.7 59 15 66 66 WNW 15 24 30.03 1017 10 16 N/A
4:53 pm 16:53 Mostly Cloudy with Light Rain 70 21.1 57 13.9 64 64 NW 16 26 30.05 1018 10 16 N/A
5:53 pm 17:53 Partly Cloudy with Light Rain 71 21.7 54 12.2 55 55 WNW 18 30 30.06 1018 10 16 N/A
6:53 pm 18:53 Sunny with Light Rain 71 21.7 52 11.1 51 51 NW 17 28 30.07 1018 10 16 N/A
7:53 pm 19:53 Sunny with Light Rain 69 20.6 51 10.6 53 53 NW 13 20 30.10 1019 10 16 N/A
8:53 pm 20:53 Sunny 65 18.3 49 9.4 56 56 NW 8 13 30.13 1020 10 16 N/A
9:42 pm 21:42 Mostly Clear 63 17.2 49 9.4 60 60 NNW 7 11 30.15 1021 10 16 N/A
9:53 pm 21:53 Clear 61 16.1 49 9.4 65 65 NNW 5 7 30.15 1021 10 16 N/A
10:53 pm 22:53 Clear 56 13.3 52 11.1 87 87 NW 3 6 30.17 1022 10 16 N/A
11:53 pm 23:53 Clear 53 11.7 51 10.6 93 93 N N/A 30.18 1022 10 16 N/A

Powered by AerisWeather